Location: Newark
(0.5300°S, 127.4800°E)
Time: 04:21:16
(UTC+00:00)

Courier 1B Rocket - All Passes

Search period start: 19 September 2019 00:00
Search period end: 29 September 2019 00:00
Orbit: 920 x 1202 km, 28.2° (Epoch: 17 September)

Date Brightness Start Highest point End Pass type
(mag) Time Alt. Az. Time Alt. Az. Time Alt. Az.
19 Sep - 01:09:36 10° SSW 01:15:55 27° SSE 01:22:15 10° E daylight
19 Sep - 03:02:10 10° WSW 03:10:03 80° SSE 03:17:45 10° ENE daylight
19 Sep - 04:57:09 10° W 05:03:58 33° NNW 05:10:31 10° NNE daylight
19 Sep - 06:58:23 10° NNW 06:58:32 10° NNW 06:58:41 10° NNW daylight
19 Sep - 12:42:05 10° N 12:45:35 15° NNE 12:49:01 10° ENE visible
19 Sep - 14:33:13 10° NW 14:39:19 56° NNE 14:45:29 10° ESE night (unlit)
19 Sep - 16:27:01 10° W 16:32:45 38° SSW 16:38:43 10° SE night (unlit)
19 Sep - 18:24:49 10° SW 18:27:01 12° SSW 18:29:14 10° S visible
20 Sep - 00:09:15 10° SSW 00:14:20 19° SSE 00:19:30 10° ESE daylight
20 Sep - 02:01:04 10° SW 02:08:41 56° SSE 02:16:17 10° ENE daylight
20 Sep - 03:55:06 10° WSW 04:02:36 48° NNW 04:09:54 10° NE daylight
20 Sep - 05:52:40 10° WNW 05:56:53 15° NNW 06:01:00 10° N daylight
20 Sep - 13:32:35 10° NW 13:38:18 36° NNE 13:43:57 10° E night (unlit)
20 Sep - 15:25:35 10° WNW 15:31:42 58° SSW 15:37:57 10° SE night (unlit)
20 Sep - 17:21:39 10° WSW 17:25:33 17° SSW 17:29:33 10° SSE night (unlit)
20 Sep - 23:09:28 10° S 23:12:40 13° SSE 23:15:55 10° SE daylight
21 Sep - 01:00:13 10° SW 01:07:17 38° SSE 01:14:26 10° E daylight
21 Sep - 02:53:26 10° WSW 03:01:14 71° NNW 03:08:58 10° NE daylight
21 Sep - 04:49:30 10° WNW 04:55:20 23° NNW 05:01:02 10° NNE daylight
21 Sep - 12:32:10 10° NNW 12:37:11 24° NNE 12:42:04 10° E visible
21 Sep - 14:24:25 10° WNW 14:30:42 90° SW 14:37:00 10° ESE night (unlit)
21 Sep - 16:19:20 10° WSW 16:24:15 24° SSW 16:29:19 10° SSE night (unlit)
21 Sep - 23:59:40 10° SSW 00:05:49 27° SSE 00:12:09 10° E daylight
22 Sep - 01:52:06 10° WSW 01:59:53 82° SSE 02:07:44 10° ENE daylight
22 Sep - 03:47:01 10° W 03:53:52 33° NNW 04:00:37 10° NNE daylight
22 Sep - 05:47:06 10° NNW 05:48:35 11° NNW 05:50:03 10° N daylight
22 Sep - 11:32:02 10° NNW 11:35:54 16° NNE 11:39:41 10° ENE visible
22 Sep - 13:23:29 10° NW 13:29:43 58° NNE 13:35:50 10° ESE night (unlit)
22 Sep - 15:17:28 10° W 15:23:07 36° SSW 15:28:52 10° SE night (unlit)
22 Sep - 17:16:03 10° SSW 17:17:18 11° SSW 17:18:34 10° S night (unlit)
22 Sep - 22:59:27 10° SSW 23:04:18 18° SSE 23:09:18 10° ESE daylight
23 Sep - 00:51:05 10° SW 00:58:31 56° SSE 01:06:11 10° ENE daylight
23 Sep - 02:45:01 10° WSW 02:52:27 48° NNW 02:59:53 10° NE daylight
23 Sep - 04:42:29 10° WNW 04:46:52 16° NNW 04:51:12 10° NNE daylight
23 Sep - 10:32:38 10° N 10:34:28 11° NNE 10:36:16 10° NE visible
23 Sep - 12:22:44 10° NW 12:28:41 37° NNE 12:34:25 10° E visible
23 Sep - 14:15:56 10° WNW 14:22:05 56° SSW 14:28:12 10° SE night (unlit)
23 Sep - 16:12:18 10° WSW 16:15:53 16° SSW 16:19:31 10° SSE night (unlit)
23 Sep - 21:59:54 10° S 22:02:43 12° SSE 22:05:35 10° SE daylight
23 Sep - 23:50:20 10° SW 23:57:10 38° SSE 00:04:17 10° E daylight
24 Sep - 01:43:26 10° WSW 01:51:04 69° NNW 01:58:53 10° NE daylight
24 Sep - 03:39:24 10° WNW 03:45:16 23° NNW 03:51:05 10° NNE daylight
24 Sep - 11:22:10 10° NNW 11:27:31 25° NNE 11:32:38 10° E visible
24 Sep - 13:14:39 10° WNW 13:21:07 88° SSW 13:27:22 10° ESE night (unlit)
24 Sep - 15:09:48 10° WSW 15:14:37 23° SSW 15:19:29 10° SSE night (unlit)
24 Sep - 22:49:54 10° SSW 22:55:47 26° SSE 23:01:57 10° E daylight
25 Sep - 00:42:11 10° WSW 00:49:44 83° SSE 00:57:36 10° ENE daylight
25 Sep - 02:37:00 10° W 02:43:45 32° NNW 02:50:34 10° NNE daylight
25 Sep - 04:36:46 10° NNW 04:38:34 11° NNW 04:40:23 10° N daylight
25 Sep - 10:21:49 10° NNW 10:26:11 18° NNE 10:30:24 10° ENE visible
25 Sep - 12:13:35 10° NW 12:20:06 61° NNE 12:26:18 10° ESE visible
25 Sep - 14:07:47 10° W 14:13:31 35° SSW 14:19:09 10° SE night (unlit)
25 Sep - 21:49:49 10° SSW 21:54:21 18° SSE 21:59:04 10° ESE daylight
25 Sep - 23:41:15 10° SW 23:48:26 57° SSE 23:56:00 10° ENE daylight
26 Sep - 01:35:05 10° W 01:42:18 46° NNW 01:49:45 10° NE daylight
26 Sep - 03:32:26 10° WNW 03:36:49 16° NNW 03:41:11 10° NNE daylight
26 Sep - 09:21:55 10° N 09:24:41 12° NNE 09:27:24 10° NE daylight
26 Sep - 11:12:42 10° NW 11:18:59 40° NNE 11:24:56 10° E visible
26 Sep - 13:06:08 10° WNW 13:12:28 55° SSW 13:18:36 10° SE visible
26 Sep - 15:02:48 10° WSW 15:06:14 15° SSW 15:09:40 10° S night (unlit)
26 Sep - 20:50:34 10° S 20:52:50 12° SSE 20:55:09 10° SE visible
26 Sep - 22:40:36 10° SW 22:47:09 38° SSE 22:54:04 10° E daylight
27 Sep - 00:33:34 10° WSW 00:40:57 67° NNW 00:48:42 10° NE daylight
27 Sep - 02:29:27 10° WNW 02:35:10 22° NNW 02:40:58 10° NNE daylight
27 Sep - 10:11:59 10° NNW 10:17:46 27° NNE 10:23:15 10° E visible
27 Sep - 12:04:43 10° WNW 12:11:28 85° SSW 12:17:49 10° ESE visible
27 Sep - 14:00:06 10° WSW 14:05:00 23° SSW 14:09:48 10° SSE night (unlit)
27 Sep - 21:40:15 10° SSW 21:45:51 26° SSE 21:51:44 10° E daylight
27 Sep - 23:32:25 10° WSW 23:39:39 85° SSE 23:47:22 10° ENE daylight
28 Sep - 01:27:08 10° W 01:33:38 31° NNW 01:40:22 10° NNE daylight
28 Sep - 03:26:50 10° NNW 03:28:33 11° NNW 03:30:16 10° N daylight
28 Sep - 09:11:29 10° NNW 09:16:23 19° NNE 09:21:04 10° ENE daylight
28 Sep - 11:03:32 10° NW 11:10:24 63° NNE 11:16:48 10° ESE visible
28 Sep - 12:57:57 10° W 13:03:52 35° SSW 13:09:33 10° SE visible
28 Sep - 20:40:17 10° SSW 20:44:29 17° SSE 20:48:51 10° ESE visible
28 Sep - 22:31:34 10° SW 22:38:25 57° SSE 22:45:46 10° ENE daylight
